Home > Weather > Mons > Past weeks

Flag for Belgium Past Weather in Mons, Belgium — Yesterday and Last 2 Weeks

Now
57 °F

Fog.


Feels Like: 57 °F
Forecast: 57 / 67 °F
Wind: 3 mph from North

Location: Chievres

Current Time: May 29, 2016 at 6:04:16 AM

Latest Report: May 29, 2016 at 5:25 AM


Visibility: 1 mi

Pressure: 29.77 "Hg

Humidity: 94%

Dew Point: 55 °F

Location of MonsLocation

Past Weather in Mons — Graph

°F

Mons Temperature Yesterday

Maximum temperature yesterday: 72 °F (at 3:25 PM)
Minimum temperature yesterday: 52 °F (at 5:55 AM)
Average temperature yesterday: 62 °F

High & Low Weather Summary for the Past Weeks

 TemperatureHumidityPressure
High73 °F (May 21, 3:55 PM)100% (May 16, 12:25 AM)30.21 "Hg (May 16, 12:25 AM)
Low39 °F (May 15, 2:55 AM)42% (May 16, 5:55 PM)29.65 "Hg (May 18, 8:25 PM)
Average56 °F78%29.98 "Hg
* Reported May 14 5:25 AM — May 29 5:04 AM, Mons, Weather by CustomWeather, © 2016

Note: Actual official high and low records may vary slightly from our data, if they occured in-between our weather recording intervals... More about our weather records

Advertising

Mons Weather History for the Previous 24 Hours

Scroll right to see more
 ConditionsComfort  
Time TempWeatherWind HumidityBarometerVisibility
5:04 AM
Sun, May 29
57 °FFog.3 mph94%29.77 "Hg1 mi
4:25 AM57 °FFog.2 mph94%29.77 "Hg1 mi
3:55 AM57 °FFog.3 mph94%29.77 "Hg1 mi
3:25 AM57 °FFog.3 mph100%29.77 "Hg1 mi
2:55 AM57 °FFog.6 mph100%29.80 "Hg1 mi
2:25 AM57 °FFog.3 mph94%29.80 "Hg1 mi
1:55 AM59 °FFog.5 mph94%29.83 "Hg1 mi
1:25 AM59 °FFog.5 mph94%29.80 "Hg2 mi
12:55 AM59 °FFog.2 mph94%29.83 "Hg1 mi
12:25 AM59 °FFog.6 mph94%29.83 "Hg2 mi
11:55 PM
Sat, May 28
59 °FFog.7 mph94%29.83 "Hg2 mi
11:25 PM59 °FFog.7 mph94%29.83 "Hg2 mi
10:55 PM61 °FCool.7 mph88%29.83 "Hg3 mi
10:25 PM63 °FPartly sunny.9 mph83%29.83 "Hg4 mi
9:55 PM63 °FPartly sunny.9 mph83%29.83 "Hg4 mi
9:25 PM64 °FPartly sunny.9 mph78%29.83 "Hg4 mi
8:55 PM66 °FScattered clouds.10 mph78%29.86 "Hg4 mi
8:25 PM68 °FPassing clouds.12 mph69%29.86 "Hg5 mi
7:55 PM68 °FMild.12 mph73%29.83 "Hg4 mi
7:25 PM70 °FMild.9 mph69%29.83 "Hg4 mi
6:55 PM70 °FPassing clouds.10 mph64%29.86 "Hg4 mi
6:25 PM70 °FMild.10 mph69%29.86 "Hg4 mi
5:55 PM72 °FPassing clouds.9 mph65%29.86 "Hg4 mi
5:25 PM72 °FPassing clouds.8 mph65%29.86 "Hg4 mi
4:55 PM72 °FPassing clouds.8 mph65%29.86 "Hg4 mi
3:55 PM70 °FPassing clouds.7 mph69%29.89 "Hg5 mi
3:25 PM72 °FPassing clouds.6 mph61%29.89 "Hg5 mi
2:55 PM70 °FScattered clouds.6 mph69%29.89 "Hg4 mi
2:25 PM70 °FPassing clouds.5 mph69%29.89 "Hg4 mi
1:55 PM70 °FPartly sunny.6 mph73%29.92 "Hg3 mi
1:25 PM68 °FFog.7 mph73%29.92 "Hg2 mi
12:55 PM66 °FFog.7 mph83%29.92 "Hg2 mi
12:25 PM68 °FFog.8 mph78%29.92 "Hg2 mi
11:55 AM66 °FFog.7 mph83%29.92 "Hg2 mi
11:25 AM64 °FFog.6 mph83%29.95 "Hg2 mi
10:55 AM63 °FFog.3 mph88%29.95 "Hg2 mi
9:55 AM61 °FFog.5 mph88%29.95 "Hg1 mi
9:25 AM59 °FFog.5 mph94%29.95 "Hg1 mi
8:55 AM57 °FFog.6 mph100%29.95 "Hg1 mi
8:25 AM55 °FFog.5 mph100%29.95 "Hg1 mi
7:55 AM55 °FFog.1 mph100%29.95 "Hg1 mi
7:25 AM54 °FFog.3 mph100%29.95 "Hg0 mi
6:55 AM54 °FFog.1 mph100%29.95 "Hg0 mi
6:25 AM52 °FFog.1 mph100%29.95 "Hg0 mi
Weather by CustomWeather, © 2016

See weather overviewHow to use our weather pages